Location: Asheville, NC
(35.6000°N, 82.5500°W)
Time: 17:25:37

Vanguard 1 Rocket - Pass Details

Date: 12 March 2018
Orbit: 655 x 4222 km, 34.3° (Epoch: 18 March)

Event Time Altitude Azimuth Distance (km) Brightness Sun altitude
Rises 04:31:55 0° 278° (W) 7,679 - -38.8°
Reaches altitude 10° 04:39:45 10° 263° (W) 7,097 - -37.4°
Maximum altitude 04:53:35 18° 229° (SW) 6,702 - -34.9°
Exits shadow 05:04:16 13° 202° (SSW) 6,944 11.5 -32.9°
Drops below altitude 10° 05:07:45 10° 194° (SSW) 7,115 11.6 -32.3°
Sets 05:16:01 0° 177° (S) 7,676 12.0 -30.7°
